GLOBALSTAR M001 1 25162U 98008A 10067.76115633 -.00000084 +00000-0 +10000-3 0 05091 2 25162 052.0044 008.9755 0000695 044.1540 315.9374 12.37993821552712 GLOBALSTAR M004 1 25163U 98008B 10067.72367820 -.00000086 +00000-0 +10000-3 0 05581 2 25163 051.9988 151.9277 0004157 159.4728 200.6302 12.63159059556611 GLOBALSTAR M002 1 25164U 98008C 10067.75541614 -.00000071 +00000-0 +10000-3 0 04493 2 25164 051.9991 188.5255 0001644 104.0005 256.0989 11.61426691535822 GLOBALSTAR M003 1 25165U 98008D 10067.69096479 -.00000086 +00000-0 +10000-3 0 05735 2 25165 051.9939 158.6721 0001091 159.8978 200.1931 12.62275133556458 GLOBALSTAR M014 1 25306U 98023A 10067.61547065 -.00000083 +00000-0 +10000-3 0 04403 2 25306 051.9907 257.1570 0002298 086.4480 273.6632 12.29156081540101 GLOBALSTAR M006 1 25307U 98023B 10067.70377545 -.00000086 +00000-0 +10000-3 0 02713 2 25307 051.9959 204.8559 0002466 132.3907 227.7171 12.62262594547623 GLOBALSTAR M015 1 25308U 98023C 10067.76106316 -.00000086 +00000-0 +10000-3 0 02806 2 25308 051.9930 204.0774 0001964 141.4354 218.6646 12.62266902547637 GLOBALSTAR M008 1 25309U 98023D 10067.77548195 -.00000085 +00000-0 +10000-3 0 02576 2 25309 051.9925 207.9737 0002109 162.5369 197.5558 12.57124390547573 GLOBALSTAR M023 1 25621U 99004A 10067.68411548 -.00000086 +00000-0 +10000-3 0 02520 2 25621 052.0109 118.3751 0009332 044.1143 316.0458 12.62226578511156 GLOBALSTAR M040 1 25622U 99004B 10067.62308984 -.00000086 +00000-0 +10000-3 0 01589 2 25622 051.9917 114.4535 0000426 198.5635 161.5213 12.61704470511157 GLOBALSTAR M036 1 25623U 99004C 10067.55812710 -.00000086 +00000-0 +10000-3 0 01961 2 25623 051.9988 115.9406 0001545 186.1813 173.9033 12.62268393511172 GLOBALSTAR M038 1 25624U 99004D 10067.38491105 -.00000086 +00000-0 +10000-3 0 01964 2 25624 052.0005 072.4325 0001111 169.5653 190.5225 12.62273906511891 GLOBALSTAR M022 1 25649U 99012A 10067.74399900 -.00000084 +00000-0 +10000-3 0 01586 2 25649 052.0111 355.2504 0001227 114.1896 245.9087 12.38629549504917 GLOBALSTAR M041 1 25650U 99012B 10067.71162941 -.00000086 +00000-0 +10000-3 0 02042 2 25650 052.0063 252.0889 0002664 111.1773 248.9374 12.62255854506759 GLOBALSTAR M046 1 25651U 99012C 10067.69389694 -.00000086 +00000-0 +10000-3 0 02080 2 25651 052.0024 250.3395 0000775 105.3171 254.7779 12.62269427506731 GLOBALSTAR M037 1 25652U 99012D 10067.79327095 -.00000086 +00000-0 +10000-3 0 01808 2 25652 052.0019 251.1640 0002410 108.6081 251.5043 12.62269699506710 GLOBALSTAR M045 1 25676U 99019A 10067.75148816 -.00000086 +00000-0 +10000-3 0 03070 2 25676 051.9937 249.1832 0002609 111.9629 248.1516 12.62256937504309 GLOBALSTAR M019 1 25677U 99019B 10067.76367570 -.00000086 +00000-0 +10000-3 0 02071 2 25677 051.9958 293.9073 0002297 085.7686 274.3439 12.62269143504253 GLOBALSTAR M044 1 25678U 99019C 10067.78714199 -.00000084 +00000-0 +10000-3 0 02019 2 25678 052.0005 272.1842 0000321 359.0159 001.0691 12.39447229503273 GLOBALSTAR M042 1 25679U 99019D 10067.79604517 -.00000086 +00000-0 +10000-3 0 02969 2 25679 052.0053 340.7012 0000514 127.9985 232.0921 12.62271044502829 GLOBALSTAR M025 1 25770U 99031A 10067.74594344 -.00000086 +00000-0 +10000-3 0 01493 2 25770 051.9982 294.5946 0000773 081.2996 278.7954 12.62255204495579 GLOBALSTAR M049 1 25771U 99031B 10067.81492877 -.00000084 +00000-0 +10000-3 0 03524 2 25771 051.9970 300.6977 0003230 045.9687 314.1432 12.40169214495460 GLOBALSTAR M047 1 25772U 99031C 10067.78530026 -.00000086 +00000-0 +10000-3 0 02251 2 25772 051.9970 294.0548 0000524 092.5594 267.5326 12.62256488495589 GLOBALSTAR M052 1 25773U 99031D 10067.92420280 -.00000086 +00000-0 +10000-3 0 09491 2 25773 051.9930 292.4000 0002282 088.2073 271.9056 12.62256114495606 GLOBALSTAR M035 1 25851U 99037A 10067.87976402 -.00000061 +00000-0 +10000-3 0 08638 2 25851 051.9982 256.6373 0012452 304.6129 055.3482 11.04481214479786 GLOBALSTAR M032 1 25852U 99037B 10067.73874136 -.00000086 +00000-0 +10000-3 0 01242 2 25852 052.0045 340.0083 0001575 067.1079 292.9949 12.62267147491811 GLOBALSTAR M051 1 25853U 99037C 10067.75861450 -.00000086 +00000-0 +10000-3 0 01396 2 25853 052.0031 339.8444 0001634 107.4176 252.6856 12.62269354491818 GLOBALSTAR M030 1 25854U 99037D 10067.77834026 -.00000086 +00000-0 +10000-3 0 01365 2 25854 052.0034 340.0845 0000748 066.8701 293.2240 12.62262596491817 GLOBALSTAR M048 1 25872U 99041A 10067.84999685 -.00000086 +00000-0 +10000-3 0 01787 2 25872 052.0062 026.0179 0000823 156.6098 203.4811 12.62272416489568 GLOBALSTAR M026 1 25873U 99041B 10067.87002424 -.00000086 +00000-0 +10000-3 0 01552 2 25873 052.0073 026.1052 0001112 060.4752 299.6220 12.62268314489948 GLOBALSTAR M043 1 25874U 99041C 10067.43233084 -.00000086 +00000-0 +10000-3 0 01654 2 25874 052.0059 027.3649 0000818 072.0538 288.0418 12.62258754489882 GLOBALSTAR M028 1 25875U 99041D 10067.88969844 -.00000086 +00000-0 +10000-3 0 01395 2 25875 052.0051 025.6766 0000884 114.4369 245.6584 12.62269792489946 GLOBALSTAR M024 1 25883U 99043A 10067.42490607 -.00000086 +00000-0 +10000-3 0 01527 2 25883 052.0059 073.2115 0001225 150.5007 209.5928 12.62270116487008 GLOBALSTAR M027 1 25884U 99043B 10067.48614998 -.00000086 +00000-0 +10000-3 0 01334 2 25884 052.0068 072.9401 0000714 105.9603 254.1339 12.62268856487012 GLOBALSTAR M054 1 25885U 99043C 10067.90649510 -.00000081 +00000-0 +10000-3 0 00985 2 25885 052.0124 322.5924 0000673 069.9876 290.1043 12.20515035482548 GLOBALSTAR M053 1 25886U 99043D 10067.52612959 -.00000086 +00000-0 +10000-3 0 01516 2 25886 052.0083 072.8308 0000469 287.4689 072.6125 12.62268848487021 GLOBALSTAR M058 1 25907U 99049A 10067.91928807 -.00000086 +00000-0 +10000-3 0 01498 2 25907 051.9956 069.0693 0000968 124.7565 235.3391 12.62270334483322 GLOBALSTAR M050 1 25908U 99049B 10067.89574056 -.00000079 +00000-0 +10000-3 0 01075 2 25908 052.0012 309.6197 0009079 074.2671 285.9209 12.07310218478989 GLOBALSTAR M033 1 25909U 99049C 10067.50598682 -.00000086 +00000-0 +10000-3 0 01376 2 25909 051.9969 070.4999 0000800 077.8393 282.2564 12.62272293483256 GLOBALSTAR M055 1 25910U 99049D 10067.66255827 -.00000084 +00000-0 +10000-3 0 01509 2 25910 052.0025 133.7162 0001692 090.0629 270.0411 12.38119660482196 GLOBALSTAR M057 1 25943U 99058A 10067.82048169 -.00000086 +00000-0 +10000-3 0 04664 2 25943 051.9990 204.7530 0002436 116.7127 243.3997 12.62257386479255 GLOBALSTAR M059 1 25944U 99058B 10067.72147086 -.00000086 +00000-0 +10000-3 0 01197 2 25944 052.0021 205.6502 0001432 094.0710 266.0317 12.62266588479266 GLOBALSTAR M056 1 25945U 99058C 10067.68913431 -.00000086 +00000-0 +10000-3 0 04618 2 25945 051.9967 159.5293 0001091 159.3518 200.7397 12.62273752479994 GLOBALSTAR M031 1 25946U 99058D 10067.66904437 -.00000086 +00000-0 +10000-3 0 01407 2 25946 051.9963 159.9407 0003780 105.1600 254.9679 12.62269974480010 GLOBALSTAR M039 1 25961U 99062A 10067.75608945 -.00000086 +00000-0 +10000-3 0 04238 2 25961 051.9969 338.7198 0000902 150.4225 209.6650 12.62264375475645 GLOBALSTAR M034 1 25962U 99062B 10067.86742763 -.00000086 +00000-0 +10000-3 0 00717 2 25962 052.0015 024.6285 0001374 151.9020 208.1891 12.62290376474876 GLOBALSTAR M029 1 25963U 99062C 10067.59776506 -.00000086 +00000-0 +10000-3 0 04400 2 25963 051.9927 114.3061 0001915 138.8414 221.2595 12.62269006485334 GLOBALSTAR M061 1 25964U 99062D 10067.73168295 -.00000074 +00000-0 +10000-3 0 01063 2 25964 051.9762 223.4340 0004609 269.7182 090.3118 11.76685908464636 GLOBALSTAR M063 1 26081U 00008A 10067.70882492 -.00000086 +00000-0 +10000-3 0 01978 2 26081 051.9973 159.8977 0001077 162.9691 197.1202 12.62273888473382 GLOBALSTAR M062 1 26082U 00008B 10067.74293185 -.00000085 +00000-0 +10000-3 0 00998 2 26082 052.0079 304.7795 0003329 121.8829 238.2361 12.49987149464942 GLOBALSTAR M060 1 26083U 00008C 10067.71598865 -.00000086 +00000-0 +10000-3 0 01980 2 26083 052.0028 206.7826 0001586 122.5597 237.5416 12.62270139472598 GLOBALSTAR M064 1 26084U 00008D 10067.72871709 -.00000086 +00000-0 +10000-3 0 04100 2 26084 052.0052 161.2787 0002043 132.5719 227.5310 12.62264837491347 GLOBALSTAR M065 1 31571U 07020A 10067.88462465 -.00000084 +00000-0 +10856-3 0 08640 2 31571 051.9931 294.3033 0002380 093.9520 266.1608 12.62266382129146 GLOBALSTAR M069 1 31573U 07020C 10067.91185450 -.00000086 +00000-0 +10000-3 0 04360 2 31573 051.9931 249.3590 0002996 116.2349 243.8833 12.62270669129883 GLOBALSTAR M072 1 31574U 07020D 10067.79790950 -.00000886 +00000-0 -43684-2 0 08618 2 31574 052.0122 340.7869 0001555 093.7434 266.3577 12.62255014128372 GLOBALSTAR M071 1 31576U 07020F 10067.89205755 -.00000086 +00000-0 +10000-3 0 04585 2 31576 052.0052 250.1522 0002628 115.8621 244.2488 12.62264676129878 GLOBALSTAR M067 1 32263U 07048A 10067.57790389 -.00000104 +00000-0 +00000-0 0 08116 2 32263 051.9742 114.3553 0001249 180.0133 180.0732 12.62261252111520 GLOBALSTAR M070 1 32264U 07048B 10065.40514082 -.00000086 00000-0 10000-3 0 7595 2 32264 051.9747 211.4448 0002490 134.4308 225.6760 12.62267595109737 GLOBALSTAR M066 1 32265U 07048C 10065.40784030 -.00000104 00000-0 00000+0 0 8168 2 32265 051.9671 075.9418 0000197 307.1177 052.9669 12.62266982111965 GLOBALSTAR M068 1 32266U 07048D 10067.83028986 -.00000086 +00000-0 +10000-3 0 08242 2 32266 051.9847 024.6220 0000366 097.1019 262.9890 12.62267348113038